TimeGMT,TemperatureF,Dew PointF,Humidity,Sea Level PressureIn,VisibilityMPH,Wind Direction,Wind SpeedMPH,Gust SpeedMPH,PrecipitationIn,Events,Conditions,WindDirDegrees,DateUTC
12:20 AM,44.6,41.0,87,29.68,6.2,SW,5.8,-,N/A,Rain,Light Rain,220,2012-11-17 00:20:00
12:50 AM,44.6,42.8,93,29.65,6.2,West,3.5,-,N/A,Rain,Light Rain,260,2012-11-17 00:50:00
1:20 AM,42.8,41.0,93,29.65,6.2,SW,4.6,-,N/A,Rain,Light Rain,230,2012-11-17 01:20:00
1:50 AM,42.8,42.8,100,29.65,6.2,SW,3.5,-,N/A,,Mostly Cloudy,230,2012-11-17 01:50:00
2:20 AM,42.8,42.8,100,29.65,6.2,SW,4.6,-,N/A,Rain,Light Rain,220,2012-11-17 02:20:00
2:50 AM,42.8,41.0,93,29.62,6.2,WSW,4.6,-,N/A,,Scattered Clouds,240,2012-11-17 02:50:00
3:20 AM,42.8,41.0,93,29.62,6.2,SW,6.9,-,N/A,,Scattered Clouds,230,2012-11-17 03:20:00
3:50 AM,42.8,41.0,93,29.62,6.2,SW,5.8,-,N/A,,Mostly Cloudy,230,2012-11-17 03:50:00
4:20 AM,44.6,41.0,87,29.62,6.2,WSW,6.9,-,N/A,,Mostly Cloudy,250,2012-11-17 04:20:00
4:50 AM,42.8,41.0,93,29.62,6.2,WSW,6.9,-,N/A,,Scattered Clouds,250,2012-11-17 04:50:00
5:20 AM,42.8,41.0,93,29.62,6.2,WSW,5.8,-,N/A,,Scattered Clouds,240,2012-11-17 05:20:00
5:50 AM,42.8,41.0,93,29.62,6.2,WSW,6.9,-,N/A,,Partly Cloudy,240,2012-11-17 05:50:00
6:20 AM,41.0,41.0,100,29.62,6.2,WSW,5.8,-,N/A,,Partly Cloudy,250,2012-11-17 06:20:00
6:50 AM,42.8,39.2,87,29.62,-9999.0,WSW,5.8,-,N/A,,Clear,250,2012-11-17 06:50:00
7:20 AM,42.8,39.2,87,29.62,6.2,West,5.8,-,N/A,,Partly Cloudy,280,2012-11-17 07:20:00
7:50 AM,41.0,37.4,87,29.62,6.2,West,5.8,-,N/A,,Partly Cloudy,260,2012-11-17 07:50:00
8:20 AM,41.0,39.2,93,29.62,6.2,SW,10.4,-,N/A,,Scattered Clouds,230,2012-11-17 08:20:00
8:50 AM,39.2,37.4,93,29.62,6.2,WSW,8.1,-,N/A,,Partly Cloudy,240,2012-11-17 08:50:00
9:20 AM,41.0,39.2,93,29.62,6.2,WSW,6.9,-,N/A,,Partly Cloudy,240,2012-11-17 09:20:00
9:50 AM,42.8,39.2,87,29.62,-9999.0,SW,10.4,-,N/A,,Clear,230,2012-11-17 09:50:00
10:20 AM,42.8,39.2,87,29.62,-9999.0,SW,9.2,-,N/A,,Clear,230,2012-11-17 10:20:00
10:50 AM,44.6,39.2,81,29.62,-9999.0,WSW,11.5,-,N/A,,Clear,240,2012-11-17 10:50:00
11:20 AM,44.6,37.4,76,29.62,6.2,WSW,12.7,-,N/A,,Scattered Clouds,240,2012-11-17 11:20:00
11:50 AM,44.6,39.2,81,29.62,6.2,SW,10.4,-,N/A,,Partly Cloudy,230,2012-11-17 11:50:00
12:20 PM,44.6,39.2,81,29.62,6.2,SW,11.5,-,N/A,,Partly Cloudy,230,2012-11-17 12:20:00
12:50 PM,44.6,37.4,76,29.59,6.2,SW,16.1,-,N/A,,Partly Cloudy,230,2012-11-17 12:50:00
1:20 PM,42.8,37.4,81,29.59,6.2,SW,15.0,-,N/A,,Scattered Clouds,230,2012-11-17 13:20:00
1:50 PM,42.8,35.6,76,29.59,6.2,SW,17.3,-,N/A,,Partly Cloudy,230,2012-11-17 13:50:00
2:20 PM,42.8,35.6,76,29.59,6.2,WSW,15.0,-,N/A,,Partly Cloudy,240,2012-11-17 14:20:00
2:50 PM,42.8,35.6,76,29.59,6.2,WSW,11.5,-,N/A,,Partly Cloudy,240,2012-11-17 14:50:00
3:20 PM,42.8,35.6,76,29.59,6.2,SW,12.7,-,N/A,,Scattered Clouds,230,2012-11-17 15:20:00
3:50 PM,41.0,35.6,81,29.59,6.2,SW,16.1,-,N/A,,Scattered Clouds,230,2012-11-17 15:50:00
4:20 PM,41.0,35.6,81,29.62,6.2,WSW,10.4,-,N/A,,Scattered Clouds,250,2012-11-17 16:20:00
4:50 PM,41.0,35.6,81,29.62,6.2,West,5.8,-,N/A,,Mostly Cloudy,260,2012-11-17 16:50:00
5:20 PM,41.0,35.6,81,29.62,6.2,West,8.1,-,N/A,,Mostly Cloudy,260,2012-11-17 17:20:00
5:50 PM,39.2,35.6,87,29.65,6.2,WSW,11.5,-,N/A,Rain,Light Rain Showers,240,2012-11-17 17:50:00
6:20 PM,37.4,35.6,93,29.62,6.2,SW,8.1,-,N/A,,Scattered Clouds,230,2012-11-17 18:20:00
6:50 PM,35.6,33.8,93,29.62,6.2,WSW,8.1,-,N/A,,Partly Cloudy,240,2012-11-17 18:50:00
7:20 PM,33.8,33.8,100,29.62,6.2,SW,9.2,-,N/A,,Partly Cloudy,230,2012-11-17 19:20:00
7:50 PM,37.4,35.6,93,29.65,6.2,WSW,11.5,-,N/A,,Scattered Clouds,250,2012-11-17 19:50:00
8:20 PM,37.4,35.6,93,29.65,6.2,SW,13.8,-,N/A,,Partly Cloudy,230,2012-11-17 20:20:00
8:50 PM,37.4,33.8,87,29.65,6.2,SW,18.4,-,N/A,,Partly Cloudy,230,2012-11-17 20:50:00
9:20 PM,37.4,33.8,87,29.65,6.2,WSW,12.7,-,N/A,,Partly Cloudy,240,2012-11-17 21:20:00
9:50 PM,37.4,33.8,87,29.65,6.2,WSW,15.0,-,N/A,,Partly Cloudy,240,2012-11-17 21:50:00
10:20 PM,37.4,33.8,87,29.68,6.2,SW,12.7,-,N/A,,Partly Cloudy,230,2012-11-17 22:20:00
10:50 PM,35.6,33.8,93,29.68,-9999.0,WSW,11.5,-,N/A,,Clear,240,2012-11-17 22:50:00
11:20 PM,35.6,33.8,93,29.68,-9999.0,WSW,13.8,-,N/A,,Clear,240,2012-11-17 23:20:00
11:50 PM,35.6,33.8,93,29.68,-9999.0,WSW,12.7,-,N/A,,Clear,240,2012-11-17 23:50:00